Powrót do katalogu

SHIYAN 32-03

AktywnyNaukaVLEO
NORAD 66379·PAYLOAD·🇨🇳 China

Wystrzelony Nov 8, 2025 z Yellow Sea Launch Area

Loading…

Następne Przeloty (najbliższe 24 godziny)

TLE

ŚwieżeSource: Space-Track

Epoka: Sep 14, 2026, 22:21 UTC

1 66379U 25255D   26257.93133025  .00010518  00000-0  25400-3 0  9997
2 66379  52.9954 308.5371 0008304 108.4872 251.7035 15.41755390 47823

Śledź SHIYAN 32-03 w czasie rzeczywistym z AllMySat

Download on the App Store